Change the Weather History Date:

Thursday, March 7, 2013

  Actual Average Record
Temperature  
Mean Temperature 10 °F 22 °F  
Max Temperature 27 °F 31 °F 70 °F (2000)
Min Temperature -8 °F 14 °F -21 °F (1955)
Degree Days  
Heating Degree Days 55 43  
Month to date heating degree days 347 307  
Since 1 July heating degree days 6855 7174  
Cooling Degree Days 0 0  
Month to date cooling degree days 0 0  
Year to date cooling degree days 0 0  
Moisture  
Dew Point 11 °F    
Average Humidity 75    
Maximum Humidity 92    
Minimum Humidity 57    
Precipitation  
Precipitation 0.00 in 0.04 in 1.21 in (1874)
Month to date precipitation 0.44 0.30  
Year to date precipitation 2.99 2.07  
Snow  
Snow 0.00 in 0.50 in 9.00 in (2002)
Month to date snowfall 8.7 3.8  
Since 1 July snowfall 61.5 69.4  
Snow Depth 19.00 in    
Sea Level Pressure  
Sea Level Pressure 30.40 in    
Wind  
Wind Speed 7 mph (East)    
Max Wind Speed 18 mph    
Max Gust Speed 22 mph    
Visibility 10 miles    
Events      
T = Trace of Precipitation, MM = Missing Value Source: NWS Daily Summary

Daily Weather History Graph

Daily Weather History Graph

Search for Another Location

Airport or City:

Trip Planner

Search our weather history database for the weather conditions in past years. The results will help you decide how hot, cold, wet, or windy it might be!

Date:

Astronomy

Mar. 07, 2013 Rise Set
Actual Time 6:36 AM CST 6:03 PM CST
Civil Twilight 6:06 AM CST 6:33 PM CST
Nautical Twilight 5:31 AM CST 7:09 PM CST
Astronomical Twilight 4:55 AM CST 7:44 PM CST
Moon 3:50 AM CST (3/7) 1:39 PM CST (3/7)
Length of Visible Light 12h 27m
Length of Day
11h 26m
Waning Crescent, 20% of the Moon is Illuminated
Mar 7
Waning Crescent
Mar 11
New
Mar 19
First Quarter
Mar 27
Full
Apr 2
Last Quarter

Hourly Weather History & Observations

Time (CST) Temp. Windchill Dew Point Humidity Pressure Visibility Wind Dir Wind Speed Gust Speed Precip Events Conditions
12:55 AM 9.0 °F - 6.1 °F 88% 30.40 in 10.0 mi Calm Calm - N/A   Clear
1:55 AM 3.0 °F - -2.0 °F 80% 30.41 in 10.0 mi Calm Calm - N/A   Clear
2:55 AM 1.0 °F -6.7 °F -2.0 °F 87% 30.42 in 10.0 mi North 3.5 mph - N/A   Clear
3:55 AM 1.0 °F - -2.9 °F 83% 30.43 in 10.0 mi Calm Calm - N/A   Clear
4:55 AM -2.0 °F -10.1 °F -5.1 °F 87% 30.43 in 10.0 mi North 3.5 mph - N/A   Clear
5:55 AM 3.0 °F -8.0 °F -0.0 °F 87% 30.44 in 10.0 mi NNE 5.8 mph - N/A   Clear
6:55 AM 3.0 °F -6.4 °F -0.0 °F 87% 30.44 in 10.0 mi NE 4.6 mph - N/A   Clear
7:55 AM -0.0 °F - -2.9 °F 88% 30.45 in 10.0 mi Calm Calm - N/A   Clear
8:55 AM 12.9 °F - 9.0 °F 84% 30.45 in 10.0 mi Calm Calm - N/A   Clear
9:55 AM 21.0 °F 14.6 °F 9.0 °F 60% 30.45 in 10.0 mi ESE 4.6 mph - N/A   Clear
10:55 AM 21.9 °F 14.5 °F 12.0 °F 66% 30.45 in 10.0 mi SE 5.8 mph - N/A   Clear
11:55 AM 23.0 °F 15.8 °F 14.0 °F 68% 30.45 in 10.0 mi ESE 5.8 mph - N/A   Scattered Clouds
12:55 PM 24.1 °F 15.2 °F 14.0 °F 65% 30.43 in 10.0 mi SE 8.1 mph - N/A   Scattered Clouds
1:55 PM 25.0 °F 20.7 °F 12.9 °F 60% 30.43 in 10.0 mi SE 3.5 mph - N/A   Partly Cloudy
2:55 PM 27.0 °F 17.3 °F 14.0 °F 58% 30.41 in 10.0 mi East 10.4 mph - N/A   Clear
3:55 PM 26.1 °F 17.6 °F 16.0 °F 66% 30.41 in 10.0 mi SE 8.1 mph - N/A   Clear
4:55 PM 24.1 °F 14.4 °F 16.0 °F 71% 30.42 in 10.0 mi ESE 9.2 mph - N/A   Partly Cloudy
5:55 PM 21.9 °F 10.4 °F 16.0 °F 78% 30.41 in 10.0 mi East 11.5 mph - N/A   Mostly Cloudy
6:55 PM 21.0 °F 8.6 °F 17.1 °F 85% 30.40 in 10.0 mi East 12.7 mph - N/A   Partly Cloudy
7:55 PM 21.9 °F 9.2 °F 18.0 °F 85% 30.40 in 10.0 mi East 13.8 mph - N/A   Partly Cloudy
8:02 PM 21.2 °F 8.3 °F 17.6 °F 86% 30.29 in 10.0 mi East 13.8 mph - N/A   Scattered Clouds
8:18 PM 21.2 °F 8.9 °F 17.6 °F 86% 30.29 in 10.0 mi East 12.7 mph - N/A   Mostly Cloudy
8:34 PM 21.2 °F 7.8 °F 19.4 °F 93% 30.29 in 10.0 mi East 15.0 mph - N/A   Scattered Clouds
8:55 PM 21.9 °F 9.8 °F 19.0 °F 89% 30.39 in 10.0 mi East 12.7 mph - N/A   Scattered Clouds
9:55 PM 21.9 °F 9.8 °F 18.0 °F 85% 30.37 in 10.0 mi ESE 12.7 mph - N/A   Mostly Cloudy
10:55 PM 19.9 °F 9.3 °F 17.1 °F 89% 30.38 in 10.0 mi ESE 9.2 mph - N/A   Mostly Cloudy
11:34 PM 19.4 °F 8.6 °F 17.6 °F 93% 30.29 in 10.0 mi ESE 9.2 mph - N/A   Scattered Clouds
11:55 PM 19.0 °F 9.0 °F 16.0 °F 88% 30.38 in 10.0 mi ESE 8.1 mph - N/A   Scattered Clouds